Wind_Gust
30 31 32 34 33 33 33 36 37 37 34 34 35 39 35 32 33 32 31 29 31 34 31 33 33 32 33 32 34 32 32 34 32 32 33 31 32 29 30 31 31 31 30 27 28 26 28 28 28 27 24 24 24 24 24 24 23 23 23 22 22 22 22 23 26 25 23 21 22 22 18 18 22 21 23 21 19 20 17 21 21 20 21 23 22
28 31 32 34 34 34 34 32 35 37 36 33 32 34 36 31 30 29 32 30 29 31 31 31 30 30 31 32 31 32 30 28 29 29 30 30 30 29 29 31 30 30 28 29 29 29 25 27 29 27 26 27 24 25 25 25 25 25 26 25 24 24 22 25 25 25 25 20 23 22 22 20 24 21 21 21 20 20 22 21 22 23 24 22 24
31 29 30 32 32 34 37 36 33 33 37 32 33 33 31 27 32 31 30 28 26 28 30 30 30 30 30 30 31 29 30 29 28 28 29 30 31 29 29 29 31 30 29 29 29 28 28 27 27 27 25 26 25 25 23 23 25 26 25 25 25 24 24 24 24 25 24 24 21 23 22 22 22 23 22 23 22 24 24 24 25 24 24 23 24
31 30 28 30 31 33 35 34 36 35 35 34 30 34 32 31 29 30 32 30 32 28 27 31 28 28 29 31 30 28 29 28 29 29 30 30 30 31 30 30 30 29 29 30 29 29 29 28 28 27 25 26 26 26 25 23 24 24 24 24 24 25 23 23 25 25 24 28 23 25 23 22 24 24 23 23 24 25 25 26 25 25 25 25 22
31 31 30 30 30 32 32 35 34 36 37 32 30 32 32 34 32 33 32 30 30 32 32 30 28 30 32 32 33 32 29 28 30 30 30 29 30 29 29 29 29 29 29 29 23 28 29 29 29 28 27 27 26 27 26 24 27 25 26 25 25 24 24 24 24 25 25 26 26 25 23 25 25 24 24 26 25 26 24 24 25 25 25 23 24
32 32 33 28 30 30 32 32 34 37 38 33 32 32 30 31 31 31 32 34 31 32 36 32 31 33 32 32 31 32 31 30 29 29 29 28 29 28 28 28 29 29 28 29 29 29 29 30 29 29 29 29 29 27 27 26 27 26 25 26 27 24 24 24 24 25 26 26 25 27 23 26 25 25 23 24 25 25 25 25 23 23 23 23 23
32 33 35 30 27 27 30 31 33 32 33 34 32 31 32 31 37 38 35 32 33 33 34 32 31 34 35 35 34 31 32 31 31 29 30 30 28 28 27 27 27 28 28 30 30 30 30 30 29 30 31 32 31 29 28 27 29 27 27 27 27 25 24 25 26 27 27 27 27 27 27 25 25 27 26 25 26 27 25 24 27 25 25 24 23
32 32 32 30 26 26 30 27 29 30 30 31 33 32 31 33 35 36 32 36 33 35 37 37 32 35 38 33 33 31 32 34 34 31 28 28 27 27 28 27 29 28 27 30 29 30 30 30 30 31 32 33 32 31 30 31 28 28 28 27 25 26 27 27 27 28 27 28 29 28 28 28 26 25 25 24 26 27 30 28 27 25 23 23 23
31 31 31 32 28 25 26 27 25 29 33 33 34 34 34 33 35 35 31 32 35 36 35 36 37 37 34 33 32 33 33 33 33 33 34 32 30 30 30 30 30 30 30 29 30 30 31 31 31 32 31 23 23 21 22 21 29 29 28 28 28 29 28 28 28 28 29 29 28 28 28 28 28 26 26 28 28 28 26 27 29 27 26 25 26
31 31 30 30 29 26 26 25 24 24 31 32 36 35 34 35 35 35 36 35 33 34 33 34 36 35 34 33 33 31 31 31 24 27 25 32 31 33 34 35 34 32 33 32 31 32 31 32 32 24 23 23 22 24 23 22 21 24 27 27 29 30 29 28 29 29 29 31 30 29 30 31 30 28 29 27 27 24 26 24 26 25 24 27 25
30 30 30 29 28 26 26 24 24 26 26 29 30 36 38 36 34 38 38 36 36 34 38 34 33 35 37 35 34 33 32 32 26 29 30 29 32 32 34 34 34 37 37 32 33 33 31 33 32 25 23 19 25 24 25 26 25 24 21 17 18 29 29 29 29 28 30 31 31 30 32 31 29 27 28 28 27 27 29 28 27 28 29 26 29
29 28 28 28 28 25 22 25 24 25 28 30 31 34 34 33 33 33 35 37 36 35 36 39 38 38 37 36 35 35 34 24 26 30 31 30 25 34 33 33 33 33 31 32 33 33 32 33 31 31 31 33 30 26 24 25 28 28 26 24 23 19 16 25 28 29 28 30 31 32 30 31 28 29 29 28 28 27 27 27 29 27 28 29 29
26 26 26 26 26 23 23 23 23 23 22 25 29 29 29 28 28 28 31 32 31 35 38 38 41 39 39 38 34 33 30 27 32 31 33 32 29 28 32 31 32 31 31 33 33 34 33 32 31 32 34 26 32 35 30 28 24 28 26 25 25 25 24 24 20 21 25 29 33 34 34 31 31 31 28 28 24 28 27 29 28 28 29 28 29
26 25 25 25 25 24 23 23 23 22 23 24 23 28 28 28 29 29 32 31 29 33 33 36 35 37 39 37 36 36 37 23 33 35 33 33 31 25 29 31 31 32 33 34 33 32 33 34 35 35 32 27 31 36 36 35 31 27 26 25 28 31 27 28 28 27 24 30 32 35 34 30 33 27 24 22 28 30 29 28 24 26 27 30 23
27 25 25 25 26 26 25 24 24 22 22 22 24 26 30 26 29 31 31 30 34 34 33 36 36 37 38 37 37 36 40 26 28 29 32 34 32 26 31 33 32 31 33 33 33 32 32 33 30 32 34 34 32 33 36 37 36 33 30 30 33 34 35 33 32 30 28 30 41 42 35 30 33 30 26 25 25 26 25 24 23 22 23 20 22
25 25 26 26 26 26 26 26 24 23 22 23 22 24 25 26 27 25 29 29 23 26 28 30 31 34 36 36 34 35 33 25 25 25 25 25 26 24 28 36 34 31 34 31 33 34 33 32 33 34 33 33 25 30 32 33 34 35 36 34 35 36 40 32 31 30 33 36 37 44 44 36 21 25 24 26 23 20 21 21 21 21 24 25 27
27 26 25 26 27 27 27 26 24 24 23 22 24 25 24 24 27 23 24 27 25 26 26 32 34 34 33 34 35 34 32 25 25 25 26 28 21 24 26 36 36 36 35 32 35 35 33 33 33 34 34 34 25 26 29 26 31 36 34 33 33 31 36 38 29 28 28 28 27 27 27 26 25 26 25 24 18 14 20 25 28 25 26 30 30
28 28 27 27 27 28 27 26 26 24 23 23 23 21 21 19 21 20 24 23 26 26 27 26 26 27 28 30 32 31 29 25 27 25 28 28 25 27 29 34 33 32 32 32 32 33 31 27 26 34 33 34 24 26 28 30 33 36 34 33 33 33 36 35 28 24 26 27 28 29 28 26 26 28 28 26 24 12 27 32 27 23 28 30 31
29 29 29 28 28 28 27 26 26 25 25 24 23 23 21 21 22 20 23 25 25 24 25 29 29 29 30 29 24 31 30 24 27 26 27 29 30 31 33 34 33 34 34 35 35 35 35 27 30 32 34 31 24 21 25 26 33 33 34 31 32 33 38 30 26 27 20 21 26 26 27 25 29 27 27 27 26 23 27 34 27 25 28 28 27
28 28 28 28 28 29 27 27 26 26 26 25 24 24 23 22 20 19 20 22 24 23 23 23 28 29 28 28 26 33 36 30 24 30 28 28 30 29 35 33 34 36 36 37 35 34 35 34 27 29 33 33 31 21 18 23 30 35 34 32 31 36 34 27 23 25 22 20 28 30 31 29 29 26 25 26 27 26 28 30 31 31 34 28 26
28 28 28 28 28 28 28 26 29 28 27 26 25 24 23 23 22 20 19 21 22 24 24 25 25 26 25 25 25 26 27 28 23 27 26 28 29 27 33 37 36 35 37 33 36 36 36 36 32 24 32 30 30 27 17 21 23 28 33 34 32 30 16 22 21 16 25 23 21 25 27 27 29 30 30 32 32 29 27 29 32 38 35 33 32
29 29 28 27 27 27 27 27 28 28 27 27 27 26 24 24 23 21 21 20 21 21 23 23 26 25 25 28 24 26 25 29 28 23 27 28 29 31 29 35 34 34 32 35 36 33 33 29 30 23 26 29 27 26 24 22 26 28 30 22 22 19 22 19 23 21 23 24 26 25 25 26 28 28 29 30 31 34 38 41 35 36 36 40 38
28 28 28 28 27 27 27 27 29 27 27 27 28 28 27 24 23 23 22 20 21 21 21 22 21 23 25 25 27 27 28 30 26 23 22 26 28 30 29 31 28 30 31 31 33 32 30 25 23 27 22 28 30 29 27 29 22 23 23 25 26 26 19 19 20 22 23 24 24 25 26 28 30 32 32 33 32 31 34 31 33 37 36 35 37
27 26 26 26 27 27 27 28 28 27 28 28 27 28 27 26 25 25 24 24 22 22 21 22 22 23 25 25 24 27 28 28 22 23 23 27 27 30 33 36 32 26 30 32 30 26 27 24 19 21 22 23 19 21 23 23 26 22 25 29 29 23 19 19 23 24 23 24 25 26 29 29 31 30 27 26 28 31 28 28 30 32 37 37 36
31 27 27 26 27 26 27 29 29 27 27 27 27 28 26 25 26 24 25 25 24 24 22 22 23 23 25 25 27 28 27 28 25 23 26 24 27 26 29 31 27 24 29 30 27 28 19 15 18 17 14 14 13 13 15 18 24 25 27 29 26 21 21 26 30 32 31 29 27 27 29 27 31 27 22 23 22 19 19 20 23 26 27 29 29
32 32 30 29 29 30 28 27 26 27 28 28 28 28 27 26 26 25 26 26 25 24 23 23 22 22 22 25 24 23 22 24 26 19 17 19 19 23 25 24 25 24 26 25 21 20 20 21 20 18 11 14 17 21 20 16 18 24 26 25 24 23 24 27 27 27 27 24 24 26 28 28 27 29 25 23 25 29 27 25 23 29 30 29 27
32 33 35 36 34 33 30 29 29 29 26 27 28 29 27 27 28 26 25 26 25 24 24 25 24 23 22 21 22 21 22 23 23 23 23 22 21 18 18 17 15 13 17 22 19 24 26 24 20 13 12 10 12 13 14 12 18 19 19 20 21 24 26 28 28 28 25 26 27 29 29 29 27 24 25 27 25 29 30 26 25 25 27 30 27
33 33 34 35 35 35 36 26 31 29 26 27 27 28 28 27 28 25 24 25 25 26 26 26 25 25 23 21 20 22 23 26 21 21 21 19 21 21 18 18 17 16 16 17 20 22 24 14 18 22 20 21 21 19 20 19 19 18 20 22 24 26 26 20 18 27 29 30 30 29 28 27 26 27 23 24 26 27 26 23 23 25 20 20 22
31 31 34 36 36 35 36 34 32 29 26 28 26 23 21 21 21 22 24 24 25 22 19 24 21 22 24 23 20 21 19 20 19 11 19 14 17 15 18 19 17 18 16 11 18 19 20 21 20 18 16 15 21 20 21 21 20 22 23 24 25 27 27 26 28 28 27 24 26 26 26 26 24 21 21 25 25 25 19 20 17 19 20 22 24
29 31 32 33 37 38 38 36 30 28 27 28 20 23 21 25 23 25 23 25 32 30 26 28 22 20 26 25 23 20 17 17 15 16 14 14 14 13 14 16 13 13 12 19 12 18 17 17 17 18 19 19 21 22 23 23 24 24 24 17 26 28 28 27 27 28 27 28 28 26 28 23 25 25 22 26 29 23 24 20 23 21 22 23 25
31 30 33 32 32 30 32 33 30 27 25 25 23 23 23 28 25 30 29 29 31 32 33 34 36 32 28 21 20 20 16 17 19 18 21 23 24 26 27 26 24 21 15 13 17 18 16 16 18 21 22 22 22 23 22 22 19 23 25 24 26 24 20 28 31 26 24 28 25 26 25 25 28 22 23 23 24 23 21 20 21 19 21 24 23
30 30 31 31 30 28 27 27 27 27 26 26 24 25 26 28 30 27 34 34 33 32 32 34 34 31 32 29 21 21 23 24 23 22 22 24 26 30 31 30 28 26 26 24 24 22 22 22 21 21 22 23 23 22 24 25 25 25 24 21 22 22 23 25 25 27 27 27 24 21 24 25 25 19 19 21 17 22 19 17 19 21 20 20 24
30 31 32 33 31 29 29 27 25 27 26 25 26 24 25 26 26 24 25 30 35 35 33 31 32 33 33 32 31 25 23 25 28 26 25 21 23 26 30 33 32 27 27 29 21 21 21 20 20 23 23 25 25 24 24 22 23 23 22 20 20 23 24 24 19 25 21 23 19 20 20 22 21 19 15 17 17 18 18 19 18 19 22 23 22
25 28 30 31 30 28 29 26 27 26 25 25 25 26 25 23 23 22 20 20 23 23 26 32 30 28 31 34 33 32 31 29 29 29 28 27 23 22 22 28 28 31 28 25 24 22 22 23 23 24 23 21 22 21 21 22 21 21 21 21 21 20 20 21 21 19 17 18 19 16 18 20 16 18 18 17 17 18 16 15 18 19 20 25 24
28 25 24 25 28 28 28 27 28 26 27 28 28 27 26 24 24 25 24 24 25 27 25 27 25 27 32 26 30 31 31 31 32 31 31 30 26 24 29 32 33 29 30 26 24 23 22 22 21 22 21 22 22 21 21 21 21 20 21 21 21 22 22 23 22 20 21 20 19 17 17 18 22 18 15 15 15 16 16 17 18 21 24 21 22
29 31 30 30 29 26 28 29 26 26 24 24 25 26 26 26 27 26 24 25 25 24 24 25 22 16 25 28 29 27 28 29 30 32 32 31 28 28 31 25 26 26 24 24 24 23 22 23 22 22 22 21 22 22 22 21 21 21 21 21 21 22 22 23 21 21 20 21 17 17 16 17 17 15 16 16 19 20 18 19 21 21 21 21 20
29 31 29 29 26 26 26 29 29 26 21 24 23 24 27 25 24 27 27 28 25 24 25 25 24 25 22 26 26 22 25 23 27 31 31 29 28 32 30 26 24 24 24 24 23 23 24 23 22 21 22 22 22 21 21 20 21 20 17 21 20 21 22 20 22 18 21 19 20 20 19 18 18 16 15 14 13 15 18 17 18 20 20 18 14
25 28 28 28 27 26 25 27 27 25 28 29 26 23 23 23 23 23 26 28 26 25 26 27 21 28 28 27 23 21 20 18 29 30 28 28 34 32 28 26 25 25 24 23 24 23 23 22 22 22 22 22 22 22 21 21 21 21 22 21 21 20 18 20 18 22 20 20 20 19 18 17 18 16 14 14 17 13 14 13 16 18 16 15 18
19 17 21 20 18 26 25 26 26 28 28 29 29 27 25 25 27 28 27 27 27 27 26 28 28 28 27 25 25 21 25 36 33 30 30 30 29 27 26 25 24 24 23 23 23 23 23 23 22 22 22 23 23 22 22 22 22 22 23 22 23 22 23 20 22 21 21 21 21 20 19 19 18 18 16 14 11 10 11 12 11 13 14 17 21
22 22 19 19 22 24 24 24 26 27 27 26 29 29 27 30 29 26 26 26 27 26 26 28 28 28 28 28 27 27 33 29 28 26 28 29 29 27 27 27 27 25 24 24 24 23 23 22 23 23 23 23 23 23 23 22 23 22 22 22 21 22 22 21 22 21 21 21 20 20 20 19 19 17 16 13 13 13 12 11 10 10 11 11 10
19 20 14 14 17 23 24 26 27 26 25 25 26 25 27 26 26 25 25 26 24 24 26 26 28 28 29 32 28 25 26 27 25 27 27 26 25 26 26 27 26 25 24 23 23 22 22 21 21 21 20 22 22 22 22 22 21 21 22 21 21 20 21 21 22 22 22 21 21 20 20 20 19 18 17 15 11 11 11 11 11 11 10 10 10
19 21 21 21 21 23 23 24 23 22 22 23 26 25 24 25 24 24 25 25 24 23 24 24 24 22 25 31 27 26 26 25 25 24 25 26 25 25 24 24 24 25 25 25 23 22 21 21 20 20 21 22 22 22 22 22 23 23 23 21 21 21 21 21 21 20 21 21 20 19 19 19 19 17 16 10 14 14 13 11 10 11 10 10 9
17 18 20 20 23 23 23 22 22 23 23 23 23 16 20 23 23 23 24 24 22 23 24 23 21 21 24 23 27 22 27 26 19 24 23 23 23 24 24 25 23 22 23 22 22 21 22 22 23 22 21 21 21 22 23 23 23 23 22 21 21 21 21 22 22 22 20 21 20 20 20 19 19 17 16 14 13 13 13 12 12 11 11 11 10
16 16 17 19 21 22 21 22 22 22 23 19 19 23 22 22 23 23 24 23 23 22 22 23 22 22 22 24 23 24 25 25 24 23 22 21 23 23 23 22 21 21 20 20 20 21 21 20 20 19 19 20 20 19 20 21 22 22 22 23 22 22 22 22 23 23 23 23 22 22 22 20 18 16 15 14 13 13 12 11 12 12 12 11 11
17 17 17 17 18 19 21 20 20 21 20 19 22 24 23 25 25 24 24 24 23 23 23 23 23 23 24 26 26 26 24 23 23 23 24 23 21 22 21 21 20 20 21 20 20 21 21 21 20 20 20 21 21 20 20 20 21 20 21 23 24 26 26 25 24 23 22 21 22 22 20 21 19 18 17 16 14 12 12 11 11 9 12 11 11
17 16 17 17 17 17 18 20 19 21 21 22 21 22 22 23 23 23 23 23 23 23 23 23 23 23 23 24 23 24 24 23 23 23 22 23 22 21 20 20 19 19 19 19 20 20 22 22 22 22 22 21 22 22 20 21 21 21 20 20 22 21 22 23 22 22 21 20 22 20 20 18 17 16 15 16 15 14 13 13 11 10 9 11 11
16 16 17 17 17 16 16 16 18 18 19 21 22 22 21 20 21 20 21 24 23 22 23 23 22 24 23 22 23 21 20 20 19 19 20 19 19 19 18 18 18 18 20 20 21 22 21 22 23 23 22 23 21 23 24 25 24 23 21 22 24 27 25 26 24 21 21 21 21 19 18 17 17 17 17 16 15 15 14 13 12 12 11 10 11
16 16 17 17 16 17 17 17 17 12 17 18 18 18 18 18 19 20 19 21 22 21 20 20 21 21 19 20 19 19 19 19 19 18 19 19 19 19 19 19 18 19 18 20 20 21 20 20 22 21 20 22 23 23 23 24 24 23 23 23 27 33 36 30 25 23 23 23 20 18 17 17 16 15 15 15 15 15 15 15 15 14 13 11 10
17 17 17 17 17 17 17 18 17 18 18 17 17 18 18 19 19 19 19 19 21 21 21 21 21 19 19 19 20 19 19 18 19 19 19 19 19 19 20 20 18 18 18 18 19 20 20 20 20 20 21 21 22 23 23 24 25 26 26 27 34 37 35 34 27 27 28 24 19 18 17 17 16 15 14 15 17 15 13 13 13 15 15 11 8
16 16 16 16 16 17 17 17 18 18 17 17 18 18 18 18 19 19 19 19 19 19 19 19 19 19 19 20 20 20 20 20 21 20 20 20 20 20 20 20 21 20 20 20 20 20 20 19 20 20 20 22 24 25 25 25 26 28 27 35 34 36 35 35 30 31 31 21 21 18 17 18 19 18 16 17 17 15 15 15 15 14 15 14 10
15 15 15 16 16 16 17 17 18 18 18 18 18 18 18 18 18 19 19 19 19 19 19 19 19 20 20 20 19 20 20 20 20 19 20 20 20 20 21 21 21 21 20 21 21 21 20 21 21 21 21 20 23 24 25 25 26 32 30 31 34 36 36 34 35 28 34 27 22 19 16 17 16 17 16 17 17 16 16 16 16 15 15 14 14
Wind_Speed
14 13 12 11 11 11 9 8 9 10 16 17 18 17 16 14 15 15 14 13 10 10 9 8 8 8 10 13 14 15 16 16 14 13 13 12 10 11 12 13 14 12 11 12 11 11 12 12 13 12 10 10 9 9 8 8 8 8 8 7 8 7 7 7 8 8 5 6 6 5 5 4 4 4 4 4 4 8 9 10 11 11 10 10 11
15 15 13 12 12 12 10 8 8 9 10 13 15 19 19 15 17 17 15 13 11 12 11 11 14 13 12 12 13 16 17 17 14 12 13 14 15 13 15 15 14 14 13 12 12 11 10 12 13 13 12 12 10 11 10 10 9 9 10 8 8 8 9 8 9 8 8 5 7 7 6 6 7 5 5 5 5 7 8 6 7 7 8 8 8
15 14 15 15 14 11 10 9 9 10 11 10 15 18 18 12 13 12 10 9 10 13 14 14 13 11 13 13 12 14 14 14 12 13 13 15 14 13 13 15 14 14 14 14 13 12 12 11 12 11 10 12 11 11 10 11 11 11 11 9 9 9 9 9 7 8 9 8 6 6 6 7 8 8 8 6 6 6 7 8 8 8 7 8 9
15 16 16 17 16 12 11 10 10 11 12 10 10 10 11 9 11 15 13 10 10 13 14 14 13 10 10 12 12 11 9 12 13 13 14 13 12 10 9 11 12 12 14 15 15 13 14 12 12 11 10 11 12 11 11 10 10 10 11 10 10 11 9 8 9 7 6 7 7 8 6 6 6 7 6 5 6 7 8 8 8 7 7 7 8
16 16 17 18 16 12 11 11 10 10 11 11 5 11 11 11 12 14 11 11 14 12 13 12 11 12 11 12 13 12 14 13 13 14 14 14 14 13 12 8 6 9 11 12 12 13 13 13 13 12 11 11 11 12 11 12 10 9 10 10 10 10 9 9 10 9 7 8 6 6 6 6 6 7 8 8 7 7 6 7 7 8 9 9 9
17 16 16 17 15 13 11 11 11 10 10 10 8 11 11 10 13 14 15 15 13 16 15 14 13 14 15 15 13 13 15 14 14 16 16 15 14 14 12 12 12 11 9 9 11 11 11 12 12 12 12 13 12 10 11 12 11 10 10 10 10 9 10 10 10 10 10 9 8 6 6 7 5 6 7 8 7 6 7 7 5 7 9 9 9
16 16 16 17 16 13 12 12 11 10 9 7 7 8 11 11 14 17 16 16 16 18 15 14 15 16 15 14 13 14 13 11 12 13 13 14 15 15 13 13 12 11 11 12 12 12 12 11 11 13 14 14 14 12 10 11 11 13 11 10 9 7 9 10 10 11 10 9 9 8 7 7 8 8 7 7 7 8 9 7 8 8 8 9 9
16 16 17 16 15 14 12 11 10 10 7 4 7 9 9 9 10 12 11 13 13 15 15 16 16 15 16 16 15 13 14 14 16 15 14 13 14 14 14 14 14 13 12 13 12 12 13 13 12 12 14 14 13 13 10 10 10 11 11 9 9 9 8 8 9 10 11 11 10 9 8 7 6 6 4 6 9 9 9 8 10 9 8 6 7
16 15 16 16 15 15 12 10 9 9 9 7 8 8 10 10 11 9 11 11 10 11 12 13 15 16 16 16 13 14 16 14 15 17 15 15 14 14 15 15 14 14 14 13 12 11 10 12 13 13 13 16 18 15 14 12 8 10 11 11 11 10 10 8 8 9 9 9 10 8 7 8 9 7 8 10 11 10 5 6 8 7 6 6 7
16 15 15 16 15 15 12 9 9 9 9 10 2 5 8 10 11 9 9 10 11 11 10 11 11 13 14 14 14 13 13 12 13 20 18 14 15 12 12 13 13 13 14 13 13 12 12 11 11 17 18 18 17 18 18 18 17 12 10 11 12 11 11 10 9 9 9 10 10 10 10 11 10 10 10 10 8 7 8 7 7 5 4 6 6
16 15 15 15 15 14 11 9 9 10 9 8 3 8 9 9 9 9 9 9 10 10 9 7 10 11 12 12 9 8 11 8 16 16 19 22 17 14 13 13 13 14 14 14 14 14 13 13 12 14 15 15 15 19 19 20 20 20 18 15 14 13 11 11 11 9 8 10 9 8 10 12 12 10 11 9 7 9 9 8 8 6 6 6 8
16 15 14 14 15 13 10 10 10 10 10 9 4 6 5 7 9 9 6 7 9 9 11 11 9 7 5 9 10 9 8 8 10 15 15 21 19 15 14 13 13 13 13 14 14 14 14 13 12 11 12 13 13 14 16 19 22 23 21 18 15 14 12 12 11 10 10 10 10 11 10 11 9 9 10 9 9 8 9 8 8 9 8 9 9
15 14 13 14 14 11 11 11 11 11 10 10 6 4 6 8 9 8 10 9 7 9 10 9 8 7 9 10 10 10 10 9 9 10 17 14 16 14 11 13 14 15 14 14 14 14 13 12 12 12 11 18 16 14 12 13 18 22 22 19 18 17 16 15 12 10 9 10 11 11 11 9 8 10 8 6 4 8 8 9 9 9 9 10 11
15 14 14 14 14 13 13 12 11 11 10 10 6 2 5 7 10 8 7 7 7 7 8 10 9 8 7 8 9 9 10 9 5 4 11 16 18 16 11 14 14 15 16 16 15 16 16 14 14 13 12 12 13 15 14 14 14 14 14 13 14 17 19 19 19 17 12 10 11 13 12 7 9 5 1 1 4 8 7 8 7 7 9 12 9
15 14 14 14 14 14 15 14 14 12 10 9 9 1 5 5 8 7 8 8 9 11 10 9 9 7 7 8 8 9 10 9 4 4 5 7 16 16 13 12 13 14 16 17 18 18 18 17 16 15 14 13 12 15 16 16 15 15 15 16 16 16 16 17 15 13 12 10 12 13 11 8 7 5 3 1 1 1 0 1 3 4 6 4 5
14 14 14 14 15 15 15 15 13 13 12 10 8 8 3 4 7 5 8 7 8 8 8 7 8 9 10 11 10 9 9 14 14 11 10 9 11 7 11 11 9 9 11 15 17 16 16 17 16 16 15 15 17 20 20 17 15 15 16 16 16 15 15 16 18 17 16 14 12 13 11 7 1 0 2 2 4 4 6 5 4 3 3 4 7
15 15 14 14 15 14 14 14 14 13 13 12 10 8 9 1 5 7 5 5 7 7 7 7 7 9 11 12 12 11 10 15 17 15 13 12 8 6 7 10 9 8 8 11 11 11 12 15 15 14 15 15 19 21 21 21 16 16 15 15 14 13 14 14 16 18 18 17 15 16 15 12 13 15 14 11 5 1 3 5 7 3 3 7 8
16 16 15 15 15 15 15 14 14 14 12 12 12 12 10 9 3 7 5 5 8 7 8 8 8 7 9 9 12 12 12 15 22 21 18 15 11 9 11 12 12 9 9 11 9 10 13 20 16 11 13 15 19 20 21 19 17 16 14 14 13 13 13 12 11 11 17 16 15 15 14 15 17 19 19 19 17 6 4 8 7 3 7 7 9
16 16 16 16 16 15 15 15 14 14 13 12 12 11 11 10 9 7 6 6 5 4 3 7 8 7 8 9 10 9 8 9 15 17 18 16 12 8 10 10 10 10 10 12 13 10 12 14 19 19 14 17 18 12 18 17 15 15 15 14 13 12 12 11 10 9 6 7 9 12 14 18 18 15 16 22 20 14 11 11 9 9 11 11 10
15 15 16 15 15 15 14 14 14 14 14 13 11 10 9 10 10 8 8 4 5 5 6 7 9 8 7 9 8 9 9 7 8 14 15 17 18 11 9 8 9 8 9 12 13 13 12 11 10 17 19 20 22 19 13 18 17 16 13 10 14 16 13 11 8 9 5 1 2 9 13 13 12 13 14 14 13 13 13 11 11 11 12 12 11
11 14 15 14 15 15 14 14 15 15 13 12 11 11 10 10 10 11 10 8 5 6 5 5 8 8 8 7 7 7 7 8 8 13 14 16 18 16 9 10 8 8 8 9 11 13 13 12 11 19 22 20 20 23 12 15 16 10 9 13 16 13 8 6 9 5 5 5 8 6 4 7 11 10 9 9 9 8 7 9 10 11 12 12 12
13 14 15 15 15 15 15 14 14 13 13 12 12 12 10 10 10 10 9 8 9 4 6 6 7 8 7 6 6 7 8 11 8 8 12 14 17 19 11 11 13 12 13 13 13 13 12 11 11 15 22 19 20 21 19 16 19 14 16 20 16 13 9 8 4 5 7 6 7 6 6 7 7 8 9 8 8 7 7 8 10 11 12 12 13
10 10 13 14 14 15 15 16 15 12 13 13 13 12 11 11 10 10 10 11 9 9 7 8 9 7 7 5 5 6 7 7 10 6 10 12 11 12 16 13 17 14 12 11 11 11 8 3 5 10 10 9 7 12 16 17 14 12 20 20 16 15 11 8 6 6 6 7 8 9 10 10 8 7 7 7 6 6 7 9 10 11 11 11 12
9 10 11 11 13 14 15 16 15 14 14 13 13 12 12 11 11 9 9 9 9 8 7 5 6 5 4 5 5 5 5 4 5 6 7 12 12 14 15 16 11 7 7 8 6 4 5 2 4 11 10 10 9 8 8 10 10 14 14 17 17 14 9 8 7 8 7 8 8 7 8 8 8 8 8 6 6 7 9 9 8 9 9 9 10
14 14 13 12 12 12 14 15 15 14 13 13 12 11 11 11 10 10 9 9 9 9 8 6 6 6 5 4 3 3 5 2 2 6 7 8 11 13 14 14 12 10 8 8 4 5 7 9 11 12 10 9 9 9 8 8 13 16 14 11 6 3 5 6 7 7 7 8 7 7 7 9 10 9 6 6 4 3 2 3 4 3 4 6 8
15 14 13 13 13 12 14 14 15 15 14 10 10 9 10 10 9 9 11 11 11 10 10 8 6 6 6 4 3 4 6 4 4 6 4 1 4 9 12 12 12 15 14 10 6 1 3 7 10 8 5 5 5 7 8 8 10 13 14 8 5 6 6 7 7 8 8 7 7 9 8 7 6 6 6 6 8 9 8 8 6 6 6 7 7
15 14 14 13 13 13 14 13 12 12 11 9 8 8 8 9 9 10 11 11 11 10 10 11 8 7 5 5 6 7 7 7 6 5 6 5 4 3 2 2 4 4 5 6 7 6 5 4 4 7 8 7 9 8 7 9 6 3 0 4 7 7 7 7 7 6 7 7 8 8 7 6 6 5 6 6 7 7 8 8 8 9 9 10 9
14 14 15 12 12 13 13 17 15 12 10 11 11 11 9 9 10 10 11 12 11 11 10 10 11 7 2 4 8 8 7 6 6 6 6 6 6 6 2 2 4 3 4 2 0 1 1 4 7 6 6 6 5 1 3 5 6 5 8 7 6 4 7 9 8 7 8 8 7 6 6 5 6 7 7 7 7 7 6 7 7 7 7 8 8
14 14 13 12 14 13 13 13 13 12 9 12 12 11 10 10 10 10 13 11 12 10 7 9 10 9 8 8 7 7 6 5 3 5 7 6 5 4 6 4 2 2 3 5 4 3 3 2 1 1 1 2 2 3 3 5 5 4 6 7 6 8 7 6 8 8 8 7 7 7 7 6 7 6 6 7 8 7 6 7 7 8 6 7 10
13 14 13 12 13 13 13 13 13 12 10 7 7 8 13 16 14 12 12 17 21 20 16 13 10 7 10 12 10 7 5 3 7 5 7 11 10 10 11 12 11 8 6 7 1 2 3 4 2 0 1 0 1 2 4 5 5 4 3 5 7 8 8 9 9 8 7 8 7 7 7 7 8 7 7 8 7 6 6 6 7 6 7 7 9
11 12 13 13 13 13 13 13 12 12 11 10 9 7 5 6 16 22 22 21 21 22 22 23 25 24 15 8 9 14 10 8 10 14 17 18 19 21 21 21 20 18 13 7 9 10 9 9 10 10 9 9 9 9 8 9 8 6 7 7 4 6 7 6 7 7 6 6 7 7 6 6 7 6 6 7 7 7 6 4 5 6 8 9 10
11 11 12 12 12 11 11 11 11 11 11 11 10 8 8 8 7 9 14 18 22 22 20 22 23 23 25 21 13 9 16 19 19 17 18 20 21 23 24 23 21 20 20 18 12 11 11 11 10 11 10 9 10 10 10 9 8 8 8 8 8 8 9 10 10 10 11 10 9 5 6 6 6 7 7 7 6 7 6 5 5 6 7 8 9
11 11 12 11 12 12 9 10 11 11 11 12 10 10 11 8 9 10 10 11 13 17 20 21 22 24 25 25 25 20 19 20 22 21 19 17 19 21 24 26 25 20 22 17 11 11 11 10 8 9 10 9 9 9 9 9 9 9 9 9 9 9 9 10 10 9 8 9 8 8 9 9 9 8 6 6 6 6 6 6 5 4 4 6 5
9 9 9 11 12 11 12 11 11 11 11 10 9 9 8 9 9 9 9 10 10 10 14 19 20 21 24 26 26 25 24 23 23 23 21 19 17 18 17 17 22 24 20 12 12 11 10 9 9 9 8 9 9 9 9 10 10 9 9 9 9 9 10 10 10 10 9 10 10 9 9 9 7 8 9 9 7 6 4 3 4 4 5 6 7
7 7 10 9 9 9 10 10 10 10 11 11 10 10 9 9 9 10 11 10 8 10 9 9 14 20 17 18 24 25 24 25 24 23 23 21 18 20 23 17 16 14 15 13 12 11 11 10 10 10 9 10 10 9 9 9 9 9 9 9 9 10 10 11 11 10 10 9 10 9 8 8 9 7 6 6 6 6 7 7 6 5 5 5 5
6 6 9 11 10 9 9 10 9 9 9 10 10 10 9 9 9 9 8 8 9 9 10 11 10 13 20 22 24 22 22 23 23 25 24 24 22 22 16 12 13 12 12 12 11 11 10 10 10 10 10 10 10 9 9 9 9 9 9 9 10 10 10 10 10 10 10 10 9 10 9 9 9 8 9 7 6 6 6 6 6 5 6 6 5
4 4 6 8 9 8 9 9 10 9 9 9 10 10 10 9 9 8 9 10 9 9 10 9 11 11 13 15 17 18 20 19 20 23 24 22 22 18 14 12 11 11 11 11 10 10 10 10 9 9 10 10 10 9 9 10 9 9 9 9 9 9 10 10 10 9 10 9 10 10 11 10 10 9 8 7 7 7 6 6 6 5 5 6 6
4 3 4 5 8 8 10 10 8 9 8 9 11 10 10 10 10 10 10 11 13 12 12 12 13 11 12 12 16 11 11 11 15 17 16 18 17 14 13 12 12 11 11 10 10 9 9 9 9 9 8 8 8 8 8 8 9 9 9 9 9 8 12 10 11 10 10 9 9 8 9 9 9 9 8 7 6 6 6 6 7 6 6 6 5
2 3 6 3 6 8 8 8 8 9 9 9 10 10 10 11 12 11 11 11 11 12 12 12 12 13 13 11 10 11 12 13 14 13 13 13 13 12 12 11 11 11 11 10 10 10 9 9 9 9 8 9 9 9 8 8 8 8 9 8 9 9 10 8 9 9 9 9 8 8 8 8 8 8 8 7 6 6 6 7 6 5 6 6 5
2 2 3 6 6 4 5 6 6 7 7 8 8 7 7 9 10 10 10 11 11 11 12 12 10 12 12 13 12 11 12 12 12 11 11 12 12 12 12 11 11 11 10 10 10 10 10 9 9 9 9 9 9 9 8 8 8 7 8 8 8 8 9 8 8 9 9 9 9 9 8 8 8 8 7 6 7 7 7 6 5 5 6 7 6
5 4 2 2 3 5 5 5 5 5 6 7 7 7 6 7 7 7 8 9 9 9 9 9 9 10 11 15 19 15 10 10 10 10 11 11 11 11 11 11 10 10 10 10 10 9 9 9 9 9 9 9 9 9 9 8 8 8 8 8 7 8 8 8 8 8 8 8 8 8 9 9 8 8 8 8 7 7 6 6 6 6 6 6 6
5 5 5 5 5 5 5 4 5 5 5 5 6 7 7 7 7 7 7 9 8 8 7 7 6 6 13 21 17 17 12 10 10 10 10 10 10 10 9 9 9 9 9 9 9 9 8 8 9 9 9 9 9 9 9 9 9 9 9 9 9 9 9 9 9 9 10 9 9 8 10 10 10 8 8 7 6 6 6 6 5 5 5 6 5
6 5 5 6 6 6 6 6 5 5 5 4 3 5 7 7 7 7 7 7 7 7 7 7 5 6 7 9 10 10 9 9 8 9 9 9 9 9 9 9 8 7 7 7 6 7 8 8 8 8 9 9 9 9 8 9 9 9 9 9 10 10 10 10 10 10 10 10 10 10 11 10 10 8 8 7 7 6 6 6 5 5 5 6 6
5 5 5 6 6 6 6 6 6 6 4 3 6 7 6 7 6 7 7 7 7 7 7 7 7 7 6 7 7 7 7 6 6 6 6 6 6 6 7 6 6 6 6 7 6 6 7 6 7 7 7 7 8 8 8 8 8 9 10 10 9 10 10 10 10 11 11 11 11 11 10 10 10 8 8 7 7 7 7 6 6 6 6 5 6
5 5 5 5 6 6 6 6 6 6 6 6 6 7 7 7 7 7 7 7 7 7 7 7 8 7 7 7 8 8 8 6 7 7 6 6 6 5 4 3 3 3 3 4 3 4 5 6 7 7 7 6 7 7 7 7 7 7 8 9 9 10 10 11 10 10 10 10 10 11 10 9 10 9 8 8 8 7 7 6 6 7 6 6 6
5 5 5 5 5 5 6 6 6 6 7 7 7 7 7 7 7 7 7 7 6 6 7 7 7 7 7 7 7 7 7 7 8 8 8 8 7 7 6 5 4 3 3 3 3 4 4 4 6 7 8 7 7 6 6 6 6 6 7 7 8 9 9 10 10 10 9 10 10 10 10 9 9 7 9 8 7 7 7 7 6 5 5 5 6
5 5 5 5 5 5 5 5 6 6 6 7 7 7 7 7 7 6 7 8 7 6 7 6 6 6 7 7 7 7 7 7 7 7 8 8 8 8 7 6 6 6 6 6 4 5 5 5 5 7 8 8 7 7 7 7 7 8 8 8 8 10 10 11 10 9 9 10 9 9 9 9 8 8 9 8 7 7 8 7 7 7 6 5 5
4 4 5 5 5 5 5 5 5 6 5 6 6 6 6 7 7 7 7 7 7 7 7 7 7 7 7 7 7 7 7 7 7 8 8 8 8 7 7 7 6 6 6 6 6 6 6 6 6 7 8 10 9 9 9 9 9 9 8 9 9 12 16 17 11 10 9 10 9 9 8 9 7 7 7 8 8 8 8 8 8 8 7 6 5
4 4 4 5 4 5 5 5 5 5 5 5 5 6 6 6 7 7 7 7 7 7 7 8 7 8 8 8 7 8 8 8 8 8 8 8 8 7 7 7 7 6 6 6 6 6 6 6 6 7 8 9 10 9 9 9 9 10 11 10 15 23 22 22 14 10 14 10 9 8 7 8 7 6 7 8 8 7 7 7 7 8 8 6 5
4 4 4 4 4 4 5 5 5 5 5 5 6 6 6 6 6 6 7 7 7 7 7 7 8 8 8 8 8 8 8 8 8 8 8 7 7 7 7 7 7 7 7 7 7 6 6 6 6 7 8 9 9 9 9 9 9 10 11 13 21 23 23 24 21 20 14 8 9 8 7 7 6 6 7 8 8 8 8 8 8 7 7 8 6
3 4 4 4 4 4 4 4 5 5 5 5 6 6 6 6 6 6 6 7 7 7 7 7 7 7 7 8 8 8 8 8 7 8 8 7 7 7 7 7 7 7 7 7 7 7 7 7 7 7 8 9 10 10 9 9 10 12 15 20 22 24 25 24 17 19 24 17 8 7 6 5 5 4 7 8 8 8 9 9 8 8 7 7 7
Wind_Direction
301 296 292 287 287 278 273 261 258 204 206 210 217 234 230 215 219 229 226 228 215 230 234 248 265 257 242 228 211 201 196 195 192 194 198 202 200 192 194 195 194 196 196 197 199 201 203 206 207 211 207 212 213 212 217 210 205 207 208 205 206 203 199 200 214 225 235 217 215 221 245 263 260 231 236 229 167 199 188 190 195 203 202 205 205
300 298 296 293 284 282 278 276 268 259 216 198 211 223 231 218 214 218 217 216 191 207 233 234 227 204 198 221 232 218 202 198 192 188 194 197 198 194 193 196 197 195 193 200 199 202 204 208 209 207 207 214 211 211 210 214 211 204 208 206 203 207 199 201 209 214 224 214 221 221 228 217 241 224 225 220 227 185 214 214 212 199 193 198 200
304 306 302 296 287 284 288 285 280 272 262 235 202 212 226 205 208 211 221 228 193 198 214 231 233 219 202 205 217 233 215 206 184 185 195 199 198 194 192 196 197 195 193 198 198 197 205 207 212 211 204 212 216 216 212 212 213 215 209 206 212 210 206 201 196 210 214 221 206 213 211 213 214 222 222 219 213 199 200 214 220 224 221 199 205
307 305 300 295 291 289 289 286 284 282 275 266 256 189 195 182 206 228 208 196 215 215 212 216 226 232 218 202 203 228 233 208 191 188 193 196 199 197 195 197 201 200 197 194 196 197 199 204 209 210 209 212 219 218 217 217 213 213 213 205 206 211 212 206 208 210 207 214 212 215 209 215 224 220 229 219 211 212 224 228 222 230 239 234 224
306 305 299 295 291 290 292 292 287 285 282 277 172 181 195 183 198 228 214 202 205 223 225 218 216 221 224 215 206 201 207 216 203 194 195 196 197 194 191 181 198 217 209 202 200 200 199 202 203 204 210 217 221 220 214 217 220 217 217 213 205 205 211 210 211 207 211 216 217 216 212 213 211 213 210 219 222 222 222 219 216 229 235 237 242
303 302 302 302 300 295 295 289 288 289 291 292 165 184 195 193 189 213 221 217 187 216 218 213 215 217 216 214 206 202 209 201 207 200 197 194 192 193 193 192 200 206 213 222 209 205 207 204 201 200 206 216 227 225 215 214 218 226 224 219 214 203 205 207 207 211 212 219 211 217 213 219 225 219 211 212 214 215 224 231 233 230 232 241 241
304 306 305 301 299 297 293 294 296 290 295 298 166 203 197 194 188 201 209 211 194 203 209 207 210 220 220 215 207 205 211 199 207 214 206 197 191 187 186 192 202 202 208 213 217 211 209 208 202 201 206 211 220 225 220 214 213 221 227 226 226 219 207 206 205 209 214 214 216 215 216 214 213 225 216 219 220 211 213 215 234 234 229 221 239
309 307 304 300 298 298 295 295 296 299 296 297 167 209 208 206 205 209 218 214 208 202 200 202 206 211 219 217 209 206 215 199 193 208 212 200 198 191 185 190 195 198 203 210 214 217 211 208 208 206 209 212 215 219 219 216 213 217 220 226 227 230 226 214 209 210 211 214 216 213 212 217 221 221 222 215 228 231 215 208 225 228 235 233 229
307 304 302 300 297 298 298 296 301 311 312 302 170 220 208 219 226 209 204 219 224 216 208 204 207 211 215 219 216 196 214 214 197 196 197 197 200 194 190 191 194 196 202 207 213 221 220 210 207 209 211 213 212 214 215 216 215 217 216 214 222 224 229 229 222 217 218 214 217 211 214 215 218 213 214 220 221 222 210 204 228 222 220 235 241
306 303 301 299 295 293 297 296 310 315 311 309 136 226 197 219 238 240 221 220 220 225 222 220 218 221 223 226 227 215 212 223 216 197 193 193 193 195 189 193 197 200 201 204 210 219 223 224 219 211 211 212 213 213 213 213 216 220 216 210 213 217 222 227 228 223 219 220 217 205 210 219 214 208 217 221 221 223 230 226 232 227 226 249 257
304 301 298 294 293 295 300 308 313 310 314 306 198 196 217 244 238 231 225 207 226 232 234 236 235 233 232 243 249 262 257 227 231 209 194 191 190 192 188 194 200 201 203 202 206 210 215 221 224 222 217 213 213 214 214 214 217 223 225 217 208 208 216 220 225 225 223 226 226 218 220 221 217 210 217 215 210 205 209 212 222 221 224 228 248
300 299 299 298 296 303 315 316 317 323 323 324 309 210 206 235 259 261 248 229 222 228 231 228 227 235 249 248 248 239 234 261 282 291 220 191 192 189 189 193 199 202 203 205 208 210 210 212 219 222 218 215 215 217 218 218 219 223 226 225 220 216 212 210 216 221 224 227 228 227 225 227 220 209 218 212 215 210 214 208 208 209 217 224 234
305 306 305 305 308 318 319 318 322 324 326 323 332 126 196 224 234 228 237 233 230 233 233 231 227 210 219 241 251 254 257 233 247 265 285 252 210 200 193 198 197 201 204 205 206 208 209 211 215 219 216 209 215 219 216 222 227 227 226 227 227 222 227 232 230 221 222 228 232 234 228 227 225 227 218 216 198 213 214 214 216 213 214 223 230
317 317 323 326 325 323 326 327 325 322 319 318 338 359 234 240 259 231 217 232 249 249 234 231 227 218 213 221 228 241 244 243 189 265 284 272 238 209 210 201 203 205 206 205 205 206 207 208 210 214 217 209 209 214 219 222 222 226 230 229 228 230 229 228 229 232 232 229 230 234 235 226 233 241 237 192 203 220 213 222 218 218 220 227 227
321 325 331 330 328 330 330 328 324 321 318 319 325 174 311 305 246 241 220 213 218 230 226 221 223 212 212 221 225 228 232 202 239 212 213 257 290 274 223 212 210 210 211 209 209 207 206 207 209 211 211 210 205 207 214 219 220 223 225 226 230 232 229 228 227 226 226 219 230 237 239 231 241 238 226 220 234 253 224 241 248 243 241 252 256
326 332 332 329 328 328 327 325 322 322 323 326 323 328 173 252 298 244 270 238 218 235 241 225 209 194 206 222 223 225 214 200 200 213 225 235 232 235 281 267 241 237 230 218 210 208 209 206 206 208 208 209 209 202 207 214 219 222 221 224 227 232 234 234 232 230 230 229 229 235 239 239 246 348 48 37 0 22 11 358 346 339 312 275 254
331 333 329 327 324 322 322 322 322 326 331 329 331 336 340 203 233 296 253 277 282 250 254 243 230 213 201 199 205 212 217 204 196 193 207 204 195 222 243 270 300 329 317 310 289 260 232 214 208 209 209 212 209 202 203 205 218 219 221 222 225 227 235 238 239 236 238 239 242 247 256 269 286 289 286 274 226 128 3 322 276 265 264 263 261
330 328 329 327 325 324 324 325 326 329 332 334 335 332 326 322 303 200 259 237 235 243 222 246 249 222 214 211 205 211 219 209 198 198 189 190 188 205 222 225 226 236 273 285 285 292 305 309 298 249 229 216 207 199 197 195 213 219 220 222 219 222 229 233 237 230 230 231 233 243 250 253 253 252 255 260 257 213 220 251 264 283 257 249 257
328 327 326 326 325 326 327 328 329 330 331 330 329 325 321 319 313 291 212 226 249 248 268 268 254 232 221 222 221 224 233 237 218 198 182 194 198 208 224 235 232 222 222 244 257 261 262 271 286 291 303 302 287 217 196 189 210 219 222 223 225 224 223 221 220 218 209 205 226 233 243 243 244 246 250 248 245 231 224 239 251 253 257 255 255
323 321 321 324 326 326 327 327 328 328 325 322 321 320 316 311 309 312 304 238 233 219 217 211 258 267 237 232 231 224 225 230 216 199 183 188 196 200 211 220 231 235 227 231 242 248 246 249 252 272 267 256 262 268 220 199 206 217 217 226 235 227 221 222 210 204 194 47 276 234 237 241 246 244 244 245 242 234 235 234 235 238 246 252 249
323 323 324 326 327 327 329 329 327 324 320 319 321 320 320 316 314 311 305 298 250 237 235 220 228 238 237 219 222 226 223 227 227 207 200 193 194 190 204 210 208 208 214 226 235 238 235 228 222 224 228 238 247 249 237 207 217 218 223 226 228 230 225 223 223 161 110 190 230 244 229 247 244 243 242 241 239 232 220 214 219 219 225 235 242
327 326 330 329 329 330 331 329 326 323 322 321 320 317 317 314 308 304 301 293 288 241 205 243 248 238 234 209 212 228 224 218 222 212 214 210 197 188 188 206 206 215 221 227 230 235 237 238 236 229 216 219 232 228 217 207 202 190 217 236 231 223 219 228 213 154 189 166 212 235 241 228 234 235 232 230 226 220 218 218 217 223 224 227 230
311 320 334 333 335 335 334 332 329 325 321 318 316 315 315 313 309 303 296 294 282 269 221 203 218 218 224 211 199 213 220 219 220 192 185 206 223 205 205 204 210 211 221 230 231 235 239 290 353 7 12 344 266 235 222 218 204 197 205 227 222 218 213 230 224 219 216 198 197 210 226 232 232 233 226 226 219 209 213 217 220 218 224 233 238
344 340 336 340 344 340 336 331 328 324 321 320 319 317 317 317 313 305 296 287 285 278 265 213 205 217 217 234 207 190 187 181 182 193 185 201 196 198 217 229 229 233 256 269 273 324 6 36 44 9 12 1 359 330 265 238 242 250 234 224 222 214 209 222 228 232 232 240 241 227 216 226 230 235 241 241 232 219 221 217 217 216 220 225 233
347 344 346 346 348 347 336 330 327 323 320 318 317 323 321 322 317 310 301 296 291 281 267 239 199 197 192 202 205 209 114 131 149 184 206 211 209 202 213 218 223 216 232 243 289 360 27 44 22 2 356 15 21 21 8 310 266 254 255 263 279 269 233 221 226 230 236 236 234 235 231 228 233 238 230 226 213 196 200 235 223 215 216 231 229
344 348 351 349 350 346 335 332 325 319 316 312 318 330 330 326 333 344 346 333 321 307 292 264 208 181 180 178 158 140 125 119 63 42 27 329 262 236 213 198 193 198 207 198 156 258 312 314 314 320 346 354 355 346 340 343 305 282 275 265 241 233 221 218 218 224 232 234 233 235 239 240 237 236 235 228 225 229 230 237 237 242 241 242 240
344 351 353 354 352 349 341 339 330 321 320 349 360 354 356 339 5 17 358 345 327 318 319 311 264 184 167 162 126 100 75 60 32 12 2 352 337 299 187 194 215 241 241 240 204 172 173 190 200 226 229 253 266 265 259 270 257 219 241 287 295 283 248 227 238 245 241 236 236 236 238 242 250 250 238 228 229 226 218 226 225 234 236 244 239
351 352 357 360 356 354 349 342 341 345 27 32 21 4 8 9 39 31 14 359 341 328 331 3 1 355 90 119 115 93 81 56 33 354 336 337 333 337 349 99 130 172 191 231 74 100 124 174 198 189 191 214 235 276 271 268 276 290 290 285 272 276 294 298 284 260 255 253 254 246 239 235 241 242 245 245 247 242 227 224 217 225 219 228 231
355 357 0 3 2 1 357 354 356 356 37 56 48 38 31 38 38 45 32 17 11 348 335 8 15 11 18 18 49 74 54 45 8 325 296 284 290 357 359 10 82 124 118 126 137 156 161 141 100 51 112 109 68 26 329 285 281 251 239 248 250 265 266 245 253 247 244 249 254 258 260 257 254 251 249 254 251 253 239 243 231 232 224 208 227
355 0 0 1 4 7 7 3 3 5 10 44 67 63 48 59 66 53 37 27 27 26 36 41 21 13 48 45 33 40 46 352 315 6 68 66 66 66 57 47 39 38 84 133 105 97 115 123 104 56 4 63 157 211 255 266 282 288 267 229 233 238 240 233 224 231 230 232 240 242 246 246 257 258 259 260 265 259 251 237 247 220 220 214 226
358 0 1 0 6 9 10 9 9 12 12 13 8 14 30 40 57 60 52 40 35 32 32 42 44 41 39 45 47 44 35 34 53 56 54 55 55 51 48 43 36 34 33 74 45 38 29 31 36 40 27 33 36 29 16 18 3 343 339 343 315 293 276 286 312 295 263 232 228 230 233 236 246 250 252 251 253 259 263 244 239 246 246 239 233
360 0 359 356 5 13 12 11 10 14 18 16 15 14 11 18 25 44 49 45 41 37 32 39 44 48 49 46 37 16 19 26 36 44 48 50 54 55 51 46 39 41 47 63 58 40 39 42 36 34 29 29 23 20 23 21 14 12 4 1 359 4 9 7 347 3 355 358 341 328 300 273 258 250 245 246 241 247 248 254 235 242 247 248 246
1 0 357 357 6 11 13 15 16 17 17 15 16 19 23 21 23 15 11 17 28 40 35 34 41 45 48 48 44 42 35 31 32 34 36 43 53 60 59 50 44 36 50 51 53 46 38 39 35 33 32 29 22 19 18 19 13 14 11 2 353 358 5 355 350 358 356 356 350 7 356 347 338 316 293 276 253 247 244 242 240 234 241 257 266
8 7 356 355 10 12 15 14 15 16 13 16 13 16 18 22 21 21 18 17 13 24 34 28 34 43 46 47 45 40 37 35 36 35 33 33 41 52 62 58 53 47 51 53 44 44 39 39 37 31 28 27 23 21 22 17 10 10 4 3 353 359 359 356 0 359 359 1 0 356 355 349 352 360 355 340 325 321 298 269 261 257 254 252 258
14 8 0 359 19 19 17 15 13 13 16 16 11 14 21 21 23 26 24 20 6 19 18 16 24 36 42 43 45 42 40 38 39 38 37 34 35 51 48 40 36 30 39 42 45 41 38 34 30 29 26 27 24 22 20 16 10 9 4 359 358 2 360 2 1 358 2 357 0 358 354 349 350 356 356 349 347 348 343 335 317 305 292 282 273
16 12 14 17 19 27 27 25 15 14 12 16 13 13 14 21 28 31 28 27 27 24 27 24 25 21 34 44 43 42 42 41 43 43 41 40 38 51 57 46 48 42 43 40 43 43 42 38 33 27 25 24 23 23 20 17 14 10 6 4 4 5 1 0 358 359 359 357 351 348 350 356 352 349 343 344 349 336 326 326 327 329 326 315 309
20 12 15 19 24 24 29 30 27 19 16 18 19 16 16 21 25 30 33 31 28 25 27 13 11 14 26 35 33 36 38 42 45 48 46 44 46 54 59 55 54 51 46 41 39 41 42 38 36 33 29 25 23 20 19 17 11 11 7 9 3 7 4 359 358 356 358 355 351 352 352 350 349 346 342 335 334 333 331 323 318 314 311 303 303
29 13 19 20 28 30 30 29 33 29 24 29 26 21 18 19 21 25 28 30 31 31 28 21 23 24 19 12 15 27 26 33 42 46 37 37 40 46 50 51 50 50 47 41 38 38 41 38 33 34 30 30 29 24 22 17 14 12 9 5 4 5 1 0 2 3 360 355 351 350 348 347 342 338 332 330 324 326 326 327 323 320 312 303 295
101 24 19 34 64 42 37 30 30 32 32 32 29 25 19 19 23 25 25 28 30 31 32 31 28 27 22 5 8 13 24 34 35 36 35 39 42 44 46 47 45 44 43 40 34 35 32 33 27 28 27 26 25 21 19 16 14 14 10 5 4 2 2 2 359 358 357 352 346 342 341 339 337 334 330 323 323 326 324 316 313 309 307 305 295
151 105 45 25 48 65 58 51 35 43 38 34 37 35 29 30 27 25 25 28 28 30 31 32 29 26 19 18 15 17 40 40 39 36 38 39 40 39 41 43 42 40 37 34 33 30 29 27 24 23 23 24 22 19 19 15 16 10 10 10 4 3 2 360 354 352 345 340 338 337 336 334 330 325 325 329 328 322 317 312 309 302 298 297 295
18 23 76 144 52 37 65 74 58 51 48 45 39 38 44 46 42 31 34 37 34 38 40 38 37 30 28 31 31 33 48 46 42 44 43 44 42 43 41 41 41 41 38 36 33 31 28 27 21 21 18 20 19 17 15 13 10 13 12 6 5 5 357 354 350 346 339 333 329 329 331 329 325 327 327 325 324 321 322 321 323 321 312 302 294
16 12 7 5 46 35 16 65 97 77 75 64 59 49 37 39 43 47 47 46 44 45 46 51 51 49 41 40 37 39 48 46 42 44 44 42 44 43 43 42 41 40 39 35 32 32 29 28 24 20 17 14 16 16 14 14 10 8 7 6 7 2 357 354 350 343 339 331 326 325 330 327 323 317 314 312 320 324 322 320 318 314 308 305 302
24 14 25 12 18 32 12 10 48 80 72 64 68 93 77 51 45 48 54 59 53 45 43 44 47 49 50 46 46 47 54 51 50 49 48 48 48 50 48 44 39 37 36 35 30 30 33 30 27 23 17 13 12 14 15 8 7 6 5 7 3 1 357 351 346 343 339 332 328 322 325 326 325 324 324 325 322 321 316 312 314 316 317 318 319
24 15 27 42 20 34 31 20 23 31 50 84 45 31 46 59 51 48 51 52 49 46 43 44 42 38 38 37 40 45 51 50 51 54 54 55 52 53 54 54 50 46 42 39 34 32 37 35 31 27 20 15 12 10 13 10 7 6 2 3 3 358 354 350 347 341 336 330 327 324 321 320 321 324 328 328 328 323 318 315 315 321 324 323 320
24 28 17 34 34 27 32 25 23 40 24 27 34 36 31 40 43 38 38 47 44 45 43 44 41 37 35 38 38 39 41 47 46 48 50 50 51 54 62 72 66 58 54 50 41 32 32 29 32 25 19 14 8 8 6 7 7 3 359 356 359 355 351 343 334 324 319 319 321 320 317 316 319 328 332 332 328 325 323 326 324 320 322 321 325
29 33 21 22 37 38 33 30 20 38 38 29 32 36 42 39 49 51 38 36 41 46 52 49 45 40 39 36 37 42 44 43 47 45 47 46 44 39 34 41 60 64 65 57 53 52 42 38 35 33 22 18 12 10 6 8 2 356 357 1 355 351 339 330 322 318 315 319 317 313 309 307 311 323 330 332 332 330 325 322 326 329 323 315 312
36 43 29 23 34 40 39 41 34 29 44 36 35 35 32 40 38 43 50 44 41 43 48 48 51 46 41 39 39 40 42 45 43 46 45 46 46 43 35 31 38 43 43 46 44 45 41 40 48 42 32 22 16 15 11 10 3 358 354 352 355 346 342 333 321 312 308 309 306 300 304 302 311 325 330 336 337 337 335 330 331 325 324 324 323
36 43 44 31 31 36 40 37 36 29 40 53 45 40 38 33 37 39 35 35 39 39 37 41 46 45 39 35 32 33 36 42 45 43 40 40 38 39 36 27 29 38 36 38 41 40 41 37 45 49 38 28 18 11 10 7 5 357 354 349 353 346 333 332 323 316 309 306 294 293 294 300 309 326 332 336 337 336 339 340 336 334 326 317 321
42 40 46 40 38 38 41 41 39 39 40 43 45 46 45 43 38 37 38 38 35 36 38 37 38 41 41 36 29 26 28 32 38 39 35 34 34 30 33 28 22 31 32 28 31 39 42 38 45 57 47 33 23 12 9 5 1 356 350 349 344 338 336 333 329 315 310 304 299 292 289 292 314 332 337 339 337 334 336 335 341 336 332 326 321
43 52 46 43 45 45 44 49 46 44 41 46 49 44 47 48 43 39 41 40 37 34 38 39 36 39 44 40 35 31 28 30 32 36 34 32 33 30 26 28 22 21 29 28 24 27 33 37 36 65 54 38 25 14 5 7 1 351 350 346 339 338 339 337 333 329 329 316 304 290 289 291 318 342 347 343 339 337 345 344 339 336 342 341 332
54 56 56 53 46 51 42 46 58 56 45 46 53 49 45 45 49 46 41 41 41 39 37 39 39 38 41 42 38 35 31 30 33 35 34 32 32 30 26 24 24 20 22 24 23 24 25 29 24 52 61 41 28 15 6 0 359 350 342 343 343 343 342 342 337 329 330 333 310 297 285 307 338 350 357 348 344 342 347 343 343 343 345 345 342